Schneifelwetter: Wetterstation Hallschlag, 537 m . NN
Wetterdaten: Freitag, 03.06.2011
Datum Zeit Temp. A. Feuchte A. Luftdruck Regen Wind Richtung Richtung Sonnenschein Helligkeit T Regen Taupunkt Windchill
03.06.2011 00:01 12,9 C 55 % 1028 hPa 0,0 l/m 29,3 km/h (5 Bft) NO45 40 0 min 0 lux 0,00 min 4,1 C 4,9 C
03.06.2011 00:16 12,8 C 56 % 1028 hPa 0,0 l/m 25,7 km/h (4 Bft) NO22.5 45 0 min 0 lux 0,00 min 4,2 C 5,5 C
03.06.2011 00:31 12,2 C 56 % 1028 hPa 0,0 l/m 19,1 km/h (3 Bft) NO45 55 0 min 0 lux 0,00 min 3,7 C 6,4 C
03.06.2011 00:46 12,0 C 57 % 1028 hPa 0,0 l/m 18,9 km/h (3 Bft) NO22.5 45 0 min 0 lux 0,00 min 3,8 C 6,2 C
03.06.2011 01:01 11,6 C 58 % 1028 hPa 0,0 l/m 13,7 km/h (3 Bft) O-NO 65 0 min 0 lux 0,00 min 3,6 C 7,6 C
03.06.2011 01:16 11,0 C 58 % 1028 hPa 0,0 l/m 13,1 km/h (3 Bft) O-NO22.5 65 0 min 0 lux 0,00 min 3,1 C 7,2 C
03.06.2011 01:31 10,3 C 60 % 1029 hPa 0,0 l/m 0,0 km/h (0 Bft) N-NO 25 0 min 0 lux 0,00 min 2,9 C 10,3 C
03.06.2011 01:46 9,8 C 61 % 1028 hPa 0,0 l/m 9,9 km/h (2 Bft) NO22.5 50 0 min 0 lux 0,00 min 2,6 C 7,4 C
03.06.2011 02:01 9,7 C 62 % 1028 hPa 0,0 l/m 11,0 km/h (2 Bft) O-NO 65 0 min 0 lux 0,00 min 2,8 C 6,7 C
03.06.2011 02:16 9,6 C 62 % 1028 hPa 0,0 l/m 9,2 km/h (2 Bft) O-NO 75 0 min 0 lux 0,00 min 2,7 C 7,6 C
03.06.2011 02:30 9,4 C 63 % 1028 hPa 0,0 l/m 8,8 km/h (2 Bft) O-NO 75 0 min 0 lux 0,00 min 2,7 C 7,7 C
03.06.2011 02:45 9,3 C 63 % 1028 hPa 0,0 l/m 8,8 km/h (2 Bft) O-NO 75 0 min 0 lux 0,00 min 2,6 C 7,6 C
03.06.2011 03:00 9,0 C 64 % 1028 hPa 0,0 l/m 5,2 km/h (1 Bft) O-NO 75 0 min 0 lux 0,00 min 2,6 C 9,0 C
03.06.2011 03:15 9,1 C 64 % 1028 hPa 0,0 l/m 8,0 km/h (2 Bft) O-NO 75 0 min 0 lux 0,00 min 2,7 C 7,9 C
03.06.2011 03:30 9,4 C 64 % 1028 hPa 0,0 l/m 12,8 km/h (3 Bft) O-NO 75 0 min 0 lux 0,00 min 2,9 C 5,4 C
03.06.2011 03:45 9,5 C 64 % 1028 hPa 0,0 l/m 12,5 km/h (3 Bft) O-NO22.5 75 0 min 0 lux 0,00 min 3,0 C 5,7 C
03.06.2011 04:00 9,2 C 64 % 1028 hPa 0,0 l/m 7,8 km/h (2 Bft) O 80 0 min 0 lux 0,00 min 2,8 C 8,2 C
03.06.2011 04:15 8,9 C 64 % 1028 hPa 0,0 l/m 9,7 km/h (2 Bft) O 80 0 min 0 lux 0,00 min 2,5 C 6,6 C
03.06.2011 04:30 9,2 C 64 % 1028 hPa 0,0 l/m 14,0 km/h (3 Bft) O45 80 0 min 0 lux 0,00 min 2,8 C 4,6 C
03.06.2011 04:45 9,2 C 64 % 1028 hPa 0,0 l/m 13,3 km/h (3 Bft) O-NO22.5 70 0 min 0 lux 0,00 min 2,8 C 4,9 C
03.06.2011 05:00 9,2 C 64 % 1028 hPa 0,0 l/m 17,6 km/h (3 Bft) O22.5 95 0 min 0 lux 0,00 min 2,8 C 3,1 C
03.06.2011 05:15 9,0 C 65 % 1028 hPa 0,0 l/m 11,6 km/h (2 Bft) O-NO 65 0 min 186 lux 0,00 min 2,8 C 5,6 C
03.06.2011 05:30 8,9 C 65 % 1027 hPa 0,0 l/m 11,8 km/h (2 Bft) O-NO 70 0 min 592 lux 0,00 min 2,7 C 5,4 C
03.06.2011 05:46 8,9 C 66 % 1027 hPa 0,0 l/m 10,0 km/h (2 Bft) O-NO22.5 65 0 min 1,43 klux 0,00 min 2,9 C 6,4 C
03.06.2011 06:01 9,0 C 66 % 1027 hPa 0,0 l/m 9,7 km/h (2 Bft) O-NO 65 0 min 4,55 klux 0,00 min 3,0 C 6,7 C
03.06.2011 06:16 9,3 C 67 % 1027 hPa 0,0 l/m 9,4 km/h (2 Bft) O-NO 65 0 min 7,26 klux 0,00 min 3,5 C 7,2 C
03.06.2011 06:31 9,8 C 66 % 1027 hPa 0,0 l/m 8,9 km/h (2 Bft) O-SO 105 0 min 12,1 klux 0,00 min 3,8 C 8,0 C
03.06.2011 06:46 10,5 C 66 % 1027 hPa 0,0 l/m 12,5 km/h (3 Bft) O-NO22.5 75 0 min 15,7 klux 0,00 min 4,4 C 6,8 C
03.06.2011 07:01 11,2 C 65 % 1027 hPa 0,0 l/m 13,0 km/h (3 Bft) O 85 0 min 16,4 klux 0,00 min 4,9 C 7,4 C
03.06.2011 07:16 11,9 C 64 % 1027 hPa 0,0 l/m 16,7 km/h (3 Bft) O45 95 0 min 17,5 klux 0,00 min 5,3 C 6,8 C
03.06.2011 07:31 12,7 C 61 % 1027 hPa 0,0 l/m 21,5 km/h (4 Bft) O-NO22.5 75 0 min 28,6 klux 0,00 min 5,4 C 6,4 C
03.06.2011 07:46 13,2 C 60 % 1027 hPa 0,0 l/m 24,3 km/h (4 Bft) O-NO45 65 0 min 33,8 klux 0,00 min 5,6 C 6,3 C
03.06.2011 08:01 13,6 C 59 % 1027 hPa 0,0 l/m 23,2 km/h (4 Bft) O-NO45 60 0 min 31,0 klux 0,00 min 5,7 C 7,1 C
03.06.2011 08:16 13,9 C 59 % 1027 hPa 0,0 l/m 24,0 km/h (4 Bft) O-NO45 70 0 min 33,8 klux 0,00 min 6,0 C 7,3 C
03.06.2011 08:31 15,0 C 57 % 1027 hPa 0,0 l/m 21,2 km/h (4 Bft) O45 80 0 min 45,2 klux 0,00 min 6,6 C 9,4 C
03.06.2011 08:46 16,0 C 55 % 1027 hPa 0,0 l/m 23,3 km/h (4 Bft) O-NO22.5 65 0 min 41,3 klux 0,00 min 7,0 C 10,3 C
03.06.2011 09:01 16,6 C 54 % 1027 hPa 0,0 l/m 21,6 km/h (4 Bft) O-NO22.5 65 0 min 51,2 klux 0,00 min 7,3 C 11,5 C
03.06.2011 09:16 17,5 C 51 % 1027 hPa 0,0 l/m 23,4 km/h (4 Bft) O67.5 85 15 min 55,0 klux 0,00 min 7,3 C 12,3 C
03.06.2011 09:30 18,3 C 49 % 1027 hPa 0,0 l/m 24,5 km/h (4 Bft) O45 80 14 min 58,1 klux 0,00 min 7,4 C 13,2 C
03.06.2011 09:46 18,8 C 48 % 1027 hPa 0,0 l/m 32,0 km/h (5 Bft) O-NO67.5 65 16 min 61,5 klux 0,00 min 7,6 C 12,8 C
03.06.2011 10:01 19,5 C 47 % 1027 hPa 0,0 l/m 24,8 km/h (4 Bft) O-NO45 60 15 min 65,6 klux 0,00 min 7,9 C 14,7 C
03.06.2011 10:16 19,8 C 45 % 1027 hPa 0,0 l/m 28,3 km/h (4 Bft) O-NO45 70 15 min 72,1 klux 0,00 min 7,5 C 14,7 C
03.06.2011 10:31 19,6 C 45 % 1027 hPa 0,0 l/m 23,6 km/h (4 Bft) O-NO45 75 15 min 63,6 klux 0,00 min 7,3 C 15,1 C
03.06.2011 10:46 19,7 C 46 % 1027 hPa 0,0 l/m 30,2 km/h (5 Bft) O45 85 15 min 83,7 klux 0,00 min 7,8 C 14,3 C
03.06.2011 11:01 19,7 C 47 % 1027 hPa 0,0 l/m 20,1 km/h (4 Bft) O45 80 15 min 59,0 klux 0,00 min 8,1 C 15,8 C
03.06.2011 11:15 18,9 C 47 % 1027 hPa 0,0 l/m 26,0 km/h (4 Bft) NO45 55 14 min 55,1 klux 0,00 min 7,3 C 13,7 C
03.06.2011 11:31 19,5 C 48 % 1027 hPa 0,0 l/m 28,1 km/h (4 Bft) NO45 50 16 min 86,2 klux 0,00 min 8,2 C 14,3 C
03.06.2011 11:46 20,3 C 44 % 1026 hPa 0,0 l/m 26,7 km/h (4 Bft) NO67.5 55 15 min 86,9 klux 0,00 min 7,6 C 15,6 C
03.06.2011 12:01 20,4 C 46 % 1026 hPa 0,0 l/m 37,7 km/h (5 Bft) NO45 45 15 min 88,4 klux 0,00 min 8,4 C 14,5 C
03.06.2011 12:16 20,8 C 45 % 1026 hPa 0,0 l/m 29,1 km/h (5 Bft) O-NO45 65 15 min 95,2 klux 0,00 min 8,4 C 15,9 C
03.06.2011 12:31 20,9 C 45 % 1026 hPa 0,0 l/m 27,5 km/h (4 Bft) O-NO45 75 15 min 97,8 klux 0,00 min 8,5 C 16,3 C
03.06.2011 12:45 20,5 C 46 % 1026 hPa 0,0 l/m 31,3 km/h (5 Bft) NO22.5 45 14 min 94,3 klux 0,00 min 8,5 C 15,3 C
03.06.2011 13:00 21,0 C 47 % 1026 hPa 0,0 l/m 34,6 km/h (5 Bft) O-NO45 60 15 min 91,7 klux 0,00 min 9,3 C 15,7 C
03.06.2011 13:16 21,2 C 46 % 1026 hPa 0,0 l/m 32,9 km/h (5 Bft) O67.5 80 16 min 93,9 klux 0,00 min 9,1 C 16,1 C
03.06.2011 13:31 21,6 C 47 % 1025 hPa 0,0 l/m 25,7 km/h (4 Bft) O-NO45 75 15 min 94,3 klux 0,00 min 9,8 C 17,5 C
03.06.2011 13:46 21,8 C 47 % 1025 hPa 0,0 l/m 29,6 km/h (5 Bft) O-NO45 75 15 min 92,0 klux 0,00 min 10,0 C 17,3 C
03.06.2011 14:01 21,8 C 45 % 1026 hPa 0,0 l/m 30,6 km/h (5 Bft) O-NO45 60 15 min 91,5 klux 0,00 min 9,3 C 17,2 C
03.06.2011 14:16 21,6 C 45 % 1025 hPa 0,0 l/m 30,0 km/h (5 Bft) O67.5 85 15 min 96,6 klux 0,00 min 9,2 C 17,0 C
03.06.2011 14:30 21,9 C 44 % 1025 hPa 0,0 l/m 34,4 km/h (5 Bft) N-NO67.5 25 14 min 96,0 klux 0,00 min 9,1 C 17,0 C
03.06.2011 14:46 21,5 C 45 % 1025 hPa 0,0 l/m 33,9 km/h (5 Bft) NO67.5 50 16 min 67,2 klux 0,00 min 9,1 C 16,4 C
03.06.2011 15:01 21,8 C 42 % 1025 hPa 0,0 l/m 30,3 km/h (5 Bft) NO45 35 15 min 94,8 klux 0,00 min 8,3 C 17,2 C
03.06.2011 15:16 22,0 C 44 % 1024 hPa 0,0 l/m 36,0 km/h (5 Bft) O-NO67.5 75 15 min 76,5 klux 0,00 min 9,2 C 17,0 C
03.06.2011 15:31 22,1 C 44 % 1024 hPa 0,0 l/m 35,3 km/h (5 Bft) N-NO67.5 25 15 min 91,4 klux 0,00 min 9,3 C 17,2 C
03.06.2011 15:46 22,1 C 44 % 1024 hPa 0,0 l/m 38,8 km/h (5 Bft) NO67.5 45 15 min 82,0 klux 0,00 min 9,3 C 16,9 C
03.06.2011 16:01 22,5 C 44 % 1024 hPa 0,0 l/m 40,2 km/h (6 Bft) O45 95 15 min 80,1 klux 0,00 min 9,6 C 17,4 C
03.06.2011 16:15 22,8 C 44 % 1024 hPa 0,0 l/m 30,0 km/h (5 Bft) O-NO67.5 70 14 min 78,0 klux 0,00 min 9,9 C 18,7 C
03.06.2011 16:31 22,8 C 43 % 1024 hPa 0,0 l/m 29,6 km/h (5 Bft) O-NO45 65 16 min 75,2 klux 0,00 min 9,6 C 18,7 C
03.06.2011 16:46 23,1 C 44 % 1024 hPa 0,0 l/m 33,9 km/h (5 Bft) O-NO45 60 15 min 72,0 klux 0,00 min 10,2 C 18,7 C
03.06.2011 17:01 23,2 C 44 % 1023 hPa 0,0 l/m 33,3 km/h (5 Bft) O-NO45 70 15 min 70,7 klux 0,00 min 10,3 C 18,9 C
03.06.2011 17:16 23,0 C 44 % 1023 hPa 0,0 l/m 43,4 km/h (6 Bft) NO45 45 15 min 63,7 klux 0,00 min 10,1 C 18,0 C
03.06.2011 17:31 22,6 C 45 % 1023 hPa 0,0 l/m 34,4 km/h (5 Bft) NO45 50 15 min 62,9 klux 0,00 min 10,1 C 18,0 C
03.06.2011 17:45 22,6 C 46 % 1023 hPa 0,0 l/m 37,0 km/h (5 Bft) NO67.5 50 14 min 56,1 klux 0,00 min 10,4 C 17,8 C
03.06.2011 18:01 22,6 C 45 % 1023 hPa 0,0 l/m 40,1 km/h (6 Bft) O-NO67.5 75 16 min 54,0 klux 0,00 min 10,1 C 17,6 C
03.06.2011 18:16 22,8 C 46 % 1022 hPa 0,0 l/m 37,2 km/h (5 Bft) O-NO67.5 70 0 min 50,3 klux 0,00 min 10,6 C 18,1 C
03.06.2011 18:31 22,9 C 47 % 1022 hPa 0,0 l/m 25,7 km/h (4 Bft) O67.5 90 0 min 45,8 klux 0,00 min 11,0 C 19,2 C
03.06.2011 18:46 22,7 C 46 % 1022 hPa 0,0 l/m 21,9 km/h (4 Bft) O-NO45 65 0 min 41,3 klux 0,00 min 10,5 C 19,4 C
03.06.2011 19:01 22,5 C 46 % 1022 hPa 0,0 l/m 27,0 km/h (4 Bft) O-NO45 75 0 min 37,8 klux 0,00 min 10,3 C 18,5 C
03.06.2011 19:16 22,4 C 47 % 1022 hPa 0,0 l/m 27,7 km/h (4 Bft) NO45 55 0 min 34,4 klux 0,00 min 10,5 C 18,3 C
03.06.2011 19:30 22,2 C 47 % 1022 hPa 0,0 l/m 25,9 km/h (4 Bft) O-NO45 60 0 min 31,7 klux 0,00 min 10,3 C 18,3 C
03.06.2011 19:46 21,9 C 49 % 1022 hPa 0,0 l/m 23,5 km/h (4 Bft) O-NO45 65 0 min 28,5 klux 0,00 min 10,7 C 18,2 C
03.06.2011 20:01 21,4 C 50 % 1022 hPa 0,0 l/m 24,6 km/h (4 Bft) O-NO45 60 0 min 24,0 klux 0,00 min 10,5 C 17,3 C
03.06.2011 20:16 21,0 C 51 % 1022 hPa 0,0 l/m 20,9 km/h (4 Bft) O-NO45 60 0 min 19,8 klux 0,00 min 10,5 C 17,3 C
03.06.2011 20:31 20,7 C 53 % 1022 hPa 0,0 l/m 20,5 km/h (4 Bft) NO22.5 55 0 min 16,1 klux 0,00 min 10,8 C 17,0 C
03.06.2011 20:46 20,2 C 53 % 1022 hPa 0,0 l/m 24,7 km/h (4 Bft) NO22.5 45 0 min 12,8 klux 0,00 min 10,3 C 15,7 C
03.06.2011 21:01 20,0 C 54 % 1022 hPa 0,0 l/m 25,3 km/h (4 Bft) NO22.5 50 0 min 4,90 klux 0,00 min 10,4 C 15,3 C
03.06.2011 21:16 19,4 C 56 % 1022 hPa 0,0 l/m 16,5 km/h (3 Bft) O-NO22.5 60 0 min 3,46 klux 0,00 min 10,4 C 16,2 C
03.06.2011 21:31 19,1 C 57 % 1022 hPa 0,0 l/m 16,2 km/h (3 Bft) NO22.5 45 0 min 2,34 klux 0,00 min 10,4 C 15,9 C
03.06.2011 21:46 18,8 C 58 % 1022 hPa 0,0 l/m 16,3 km/h (3 Bft) NO22.5 35 0 min 1,20 klux 0,00 min 10,4 C 15,5 C
03.06.2011 22:01 18,4 C 58 % 1022 hPa 0,0 l/m 14,8 km/h (3 Bft) NO45 55 0 min 364 lux 0,00 min 10,0 C 15,4 C
03.06.2011 22:16 17,5 C 60 % 1022 hPa 0,0 l/m 0,0 km/h (0 Bft) NO 35 0 min 47 lux 0,00 min 9,6 C 17,5 C
03.06.2011 22:31 16,8 C 61 % 1022 hPa 0,0 l/m 0,3 km/h (0 Bft) NO 35 0 min 10 lux 0,00 min 9,2 C 16,8 C
03.06.2011 22:45 16,4 C 62 % 1022 hPa 0,0 l/m 0,6 km/h (0 Bft) NO 35 0 min 0 lux 0,00 min 9,1 C 16,4 C
03.06.2011 23:01 16,1 C 64 % 1022 hPa 0,0 l/m 0,0 km/h (0 Bft) NO 35 0 min 0 lux 0,00 min 9,3 C 16,1 C
03.06.2011 23:16 15,8 C 64 % 1022 hPa 0,0 l/m 0,0 km/h (0 Bft) NO 35 0 min 0 lux 0,00 min 9,0 C 15,8 C
03.06.2011 23:31 15,6 C 66 % 1022 hPa 0,0 l/m 0,0 km/h (0 Bft) NO 35 0 min 0 lux 0,00 min 9,3 C 15,6 C
03.06.2011 23:46 15,5 C 66 % 1022 hPa 0,0 l/m 0,0 km/h (0 Bft) NO 35 0 min 0 lux 0,00 min 9,2 C 15,5 C
_ Min-Zeit 04:15 15:01 18:16 - 01:31 - - - - - 04:15 05:00
Minimum _ 8,9 C 42 % 1022 hPa - 0,0 km/h (0 Bft) - - - - - 2,5 C 3,1 C
_ Max-Zeit 17:01 06:16 01:31 00:01 17:16 - - 09:46 12:31 00:01 18:31 18:46
Maximum _ 23,2 C 67 % 1029 hPa 0,0 l/m 43,4 km/h
NO (6 Bft)
- - 16 min 97,8 klux 0,00 min 11,0 C 19,4 C
Durchschnitt _ 16,8 C 54 % 1026 hPa #0,0 l/m 21,1 km/h (4 Bft) O-NO - #9:00 h 36,4 klux #0 min. 7,2 C 12,8 C